ASTRA 2F

Last updated on Thu Nov 21 2024 00:02:42 GMT+0000 (Coordinated Universal Time)

1 38778U 12051A 24325.30088230 .00000151 00000+0 00000+0 0 9997 2 38778 0.0475 254.0546 0004861 340.4709 321.8273 1.00270106 35385
UTC large
Height (km)
Speed (km/s)
/
Latitude / Longitude
Inclination (degrees)
Orbital Period (minutes)
Azimuth
Elevation
Range (km)
Doppler Factor

Next 0 passes for location: London (51.5072 / 0.1276)

Sorry there are no passes over London.